Flag for Germany Weather past 2 weeks in Bad Mergentheim, Baden-Württemberg, Germany

Now
55 °F

Passing clouds.


Feels Like: 54 °F
Forecast: 44 / 54 °F
Wind: 6 mph from Southeast

Location: Niederstetten

Current Time: Apr 27, 2015 at 3:55:43 AM

Latest Report: Apr 27, 2015 at 3:20 AM


Visibility: N/A

Pressure: 29.59 "Hg

Humidity: 77%

Dew point: 48 °F

Location of Bad MergentheimLocation

Historic Weather in Bad Mergentheim — Graph

°F

Bad Mergentheim temperature yesterday

Maximum temperature yesterday: 66 °F (at 3:20 PM)
Minimum temperature yesterday: 50 °F (at 6:20 AM)
Average temperature yesterday: 57 °F

Past Weeks' High & Low Weather Summary

 TemperatureHumidityPressure
High72 °F (Apr 15, 3:20 PM)100% (Apr 12, 8:20 AM)30.42 "Hg (Apr 12, 8:20 AM)
Low30 °F (Apr 23, 6:20 AM)23% (Apr 21, 5:20 PM)29.62 "Hg (Apr 27, 2:20 AM)
Average52 °F57%30.13 "Hg
* Reported Apr 12 2:20 AM — Apr 27 2:20 AM, Bad Mergentheim, Weather by CustomWeather, © 2015

Note: Actual official high and low records may vary slightly from our data, if they occured in-between our weather recording intervals... More about our weather records

Advertising

Bad Mergentheim weather history for previous 24 hours

 ConditionsComfort  
Time TempWeatherWind HumidityBarometerVisibility
2:20 AM
Mon, Apr 27
57 °FPartly cloudy.12 mph72%29.62 "HgN/A
1:20 AM54 °FPartly cloudy.6 mph88%29.65 "HgN/A
12:20 AM54 °FPassing clouds.6 mph88%29.65 "HgN/A
11:20 PM
Sun, Apr 26
55 °FLight rain. Passing clouds.6 mph82%29.68 "HgN/A
10:20 PM55 °FPassing clouds.5 mph72%29.68 "HgN/A
9:20 PM57 °FBroken clouds.5 mph72%29.68 "HgN/A
8:20 PM59 °FBroken clouds.3 mph68%29.68 "HgN/A
7:20 PM63 °FBroken clouds.8 mph56%29.68 "HgN/A
6:20 PM66 °FBroken clouds.6 mph46%29.71 "HgN/A
5:20 PM66 °FBroken clouds.5 mph49%29.71 "HgN/A
4:20 PM66 °FBroken clouds.6 mph46%29.74 "HgN/A
3:20 PM66 °FBroken clouds.8 mph49%29.77 "HgN/A
2:20 PM63 °FBroken clouds.9 mph56%29.77 "HgN/A
1:20 PM63 °FBroken clouds.10 mph56%29.80 "HgN/A
12:20 PM61 °FScattered clouds.7 mph63%29.83 "HgN/A
11:20 AM59 °FScattered clouds.10 mph68%29.83 "HgN/A
10:20 AM59 °FScattered clouds.10 mph72%29.83 "HgN/A
9:20 AM55 °FPassing clouds.10 mph82%29.83 "HgN/A
8:20 AM54 °FScattered clouds.7 mph88%29.83 "HgN/A
7:20 AM50 °FScattered clouds.5 mph100%29.83 "Hg5 mi
6:20 AM50 °FPartly cloudy.6 mph100%29.83 "Hg6 mi
5:20 AM52 °FMostly cloudy.6 mph94%29.83 "Hg6 mi
4:20 AM52 °FPassing clouds.9 mph94%29.83 "Hg4 mi
3:20 AM52 °FPassing clouds.12 mph94%29.83 "Hg4 mi
Weather by CustomWeather, © 2015

See weather overviewHow to use our weather pages